Time,TemperatureF,DewpointF,PressureIn,WindDirection,WindDirectionDegrees,WindSpeedMPH,WindSpeedGustMPH,Humidity,HourlyPrecipIn,Conditions,Clouds,dailyrainin,SoftwareType,DateUTC
2013-03-15 00:02:00,32.0,31.0,-100.00,SSW,200,4.0,6.0,93,0.00,,,-99.99,,2013-03-15 05:02:00,
2013-03-15 00:12:00,33.0,31.0,-100.00,SSW,200,4.0,6.0,94,0.00,,,-99.99,,2013-03-15 05:12:00,
2013-03-15 00:22:00,33.0,32.0,-100.00,SSW,210,4.0,5.0,94,0.00,,,-99.99,,2013-03-15 05:22:00,
2013-03-15 00:32:00,33.0,31.0,-100.00,SW,220,5.0,6.0,94,0.00,,,-99.99,,2013-03-15 05:32:00,
2013-03-15 00:42:00,32.0,31.0,-100.00,SW,225,7.0,8.0,94,0.00,,,-99.99,,2013-03-15 05:42:00,
2013-03-15 00:52:00,33.0,31.0,-100.00,SW,225,9.0,9.0,94,0.00,,,-99.99,,2013-03-15 05:52:00,
2013-03-15 01:02:00,33.0,31.0,-100.00,SW,215,9.0,11.0,94,0.00,,,-99.99,,2013-03-15 06:02:00,
2013-03-15 01:12:00,33.0,31.0,-100.00,SW,215,10.0,11.0,94,0.00,,,-99.99,,2013-03-15 06:12:00,
2013-03-15 01:22:00,32.0,31.0,-100.00,SSW,210,7.0,11.0,94,0.00,,,-99.99,,2013-03-15 06:22:00,
2013-03-15 01:32:00,32.0,30.0,-100.00,SSW,210,9.0,9.0,94,0.00,,,-99.99,,2013-03-15 06:32:00,
2013-03-15 01:42:00,32.0,30.0,-100.00,SW,220,4.0,8.0,94,0.00,,,-99.99,,2013-03-15 06:42:00,
2013-03-15 01:52:00,32.0,30.0,-100.00,SW,220,4.0,6.0,94,0.00,,,-99.99,,2013-03-15 06:52:00,
2013-03-15 02:02:00,32.0,30.0,-100.00,SW,220,4.0,6.0,94,0.00,,,-99.99,,2013-03-15 07:02:00,
2013-03-15 02:12:00,31.0,30.0,-100.00,SW,215,4.0,6.0,94,0.00,,,-99.99,,2013-03-15 07:12:00,
2013-03-15 02:22:00,31.0,30.0,-100.00,SW,215,4.0,6.0,94,0.00,,,-99.99,,2013-03-15 07:22:00,
2013-03-15 02:32:00,31.0,30.0,-100.00,SW,215,4.0,6.0,94,0.00,,,-99.99,,2013-03-15 07:32:00,
2013-03-15 02:42:00,31.0,30.0,-100.00,SW,220,5.0,6.0,94,0.00,,,-99.99,,2013-03-15 07:42:00,
2013-03-15 02:52:00,33.0,31.0,-100.00,SW,230,7.0,7.0,94,0.00,,,-99.99,,2013-03-15 07:52:00,
2013-03-15 03:02:00,33.0,32.0,-100.00,WSW,245,7.0,7.0,94,0.00,,,-99.99,,2013-03-15 08:02:00,
2013-03-15 03:12:00,35.0,33.0,-100.00,WSW,245,4.0,9.0,94,0.00,,,-99.99,,2013-03-15 08:12:00,
2013-03-15 03:22:00,36.0,35.0,-100.00,WSW,245,9.0,12.0,94,0.00,,,-99.99,,2013-03-15 08:22:00,
2013-03-15 03:32:00,36.0,35.0,-100.00,WSW,245,10.0,11.0,94,0.00,,,-99.99,,2013-03-15 08:32:00,
2013-03-15 03:42:00,36.0,35.0,-100.00,WSW,245,12.0,14.0,94,0.00,,,-99.99,,2013-03-15 08:42:00,
2013-03-15 03:52:00,36.0,34.0,-100.00,SW,235,10.0,12.0,93,0.00,,,-99.99,,2013-03-15 08:52:00,
2013-03-15 04:02:00,36.0,34.0,-100.00,SW,235,10.0,12.0,93,0.00,,,-99.99,,2013-03-15 09:02:00,
2013-03-15 04:12:00,36.0,34.0,-100.00,SW,230,9.0,11.0,93,0.00,,,-99.99,,2013-03-15 09:12:00,
2013-03-15 04:22:00,36.0,34.0,-100.00,SW,225,11.0,12.0,93,0.00,,,-99.99,,2013-03-15 09:22:00,
2013-03-15 04:33:00,36.0,35.0,-100.00,SW,235,4.0,11.0,93,0.00,,,-99.99,,2013-03-15 09:33:00,
2013-03-15 04:43:00,36.0,35.0,-100.00,SW,235,4.0,11.0,93,0.00,,,-99.99,,2013-03-15 09:43:00,
2013-03-15 04:52:00,36.0,34.0,-100.00,SW,220,5.0,7.0,93,0.00,,,-99.99,,2013-03-15 09:52:00,
2013-03-15 05:03:00,37.0,35.0,-100.00,WSW,255,1.0,8.0,93,0.00,,,-99.99,,2013-03-15 10:03:00,
2013-03-15 05:12:00,37.0,35.0,-100.00,NNE,20,1.0,2.0,93,0.00,,,-99.99,,2013-03-15 10:12:00,
2013-03-15 05:23:00,35.0,34.0,-100.00,ENE,60,6.0,6.0,93,0.00,,,-99.99,,2013-03-15 10:23:00,
2013-03-15 05:33:00,35.0,33.0,-100.00,East,100,3.0,6.0,93,0.00,,,-99.99,,2013-03-15 10:33:00,
2013-03-15 05:42:00,35.0,33.0,-100.00,NE,50,6.0,7.0,93,0.00,,,-99.99,,2013-03-15 10:42:00,
2013-03-15 06:03:00,35.0,33.0,-100.00,NE,35,7.0,12.0,93,0.00,,,-99.99,,2013-03-15 11:03:00,
2013-03-15 06:12:00,35.0,33.0,-100.00,NE,45,6.0,9.0,93,0.00,,,-99.99,,2013-03-15 11:12:00,
2013-03-15 06:22:00,35.0,33.0,-100.00,NE,40,6.0,9.0,93,0.00,,,-99.99,,2013-03-15 11:22:00,
2013-03-15 06:32:00,35.0,33.0,-100.00,NE,50,5.0,7.0,93,0.00,,,-99.99,,2013-03-15 11:32:00,
2013-03-15 06:42:00,35.0,33.0,-100.00,ENE,60,6.0,8.0,93,0.00,,,-99.99,,2013-03-15 11:42:00,
2013-03-15 06:52:00,34.0,33.0,-100.00,SE,125,2.0,4.0,93,0.00,,,-99.99,,2013-03-15 11:52:00,
2013-03-15 07:02:00,34.0,33.0,-100.00,SE,125,2.0,4.0,93,0.00,,,-99.99,,2013-03-15 12:02:00,
2013-03-15 07:12:00,34.0,32.0,-100.00,East,90,4.0,6.0,93,0.00,,,-99.99,,2013-03-15 12:12:00,
2013-03-15 07:22:00,34.0,32.0,-100.00,ESE,115,6.0,6.0,93,0.00,,,-99.99,,2013-03-15 12:22:00,
2013-03-15 07:32:00,34.0,33.0,-100.00,ESE,110,4.0,5.0,94,0.00,,,-99.99,,2013-03-15 12:32:00,
2013-03-15 07:42:00,34.0,33.0,-100.00,ESE,110,4.0,5.0,94,0.00,,,-99.99,,2013-03-15 12:42:00,
2013-03-15 07:52:00,34.0,33.0,-100.00,SE,135,4.0,5.0,94,0.00,,,-99.99,,2013-03-15 12:52:00,
2013-03-15 08:02:00,34.0,33.0,-100.00,SE,135,4.0,5.0,94,0.00,,,-99.99,,2013-03-15 13:02:00,
2013-03-15 08:12:00,34.0,33.0,-100.00,ESE,115,5.0,6.0,94,0.00,,,-99.99,,2013-03-15 13:12:00,
2013-03-15 08:22:00,34.0,33.0,-100.00,ESE,115,6.0,6.0,94,0.00,,,-99.99,,2013-03-15 13:22:00,
2013-03-15 08:32:00,35.0,33.0,-100.00,ESE,120,7.0,7.0,94,0.00,,,-99.99,,2013-03-15 13:32:00,
2013-03-15 08:42:00,35.0,33.0,-100.00,ESE,120,7.0,7.0,94,0.00,,,-99.99,,2013-03-15 13:42:00,
2013-03-15 08:52:00,35.0,33.0,-100.00,SE,140,7.0,8.0,94,0.00,,,-99.99,,2013-03-15 13:52:00,
2013-03-15 09:02:00,35.0,33.0,-100.00,SE,140,7.0,8.0,94,0.00,,,-99.99,,2013-03-15 14:02:00,
2013-03-15 09:12:00,35.0,33.0,-100.00,SE,140,9.0,11.0,94,0.00,,,-99.99,,2013-03-15 14:12:00,
2013-03-15 09:22:00,35.0,33.0,-100.00,SE,135,7.0,11.0,94,0.00,,,-99.99,,2013-03-15 14:22:00,
2013-03-15 09:32:00,35.0,34.0,-100.00,SE,130,9.0,10.0,94,0.00,,,-99.99,,2013-03-15 14:32:00,
2013-03-15 09:42:00,35.0,33.0,-100.00,ESE,120,10.0,11.0,94,0.00,,,-99.99,,2013-03-15 14:42:00,
2013-03-15 09:52:00,35.0,33.0,-100.00,SE,125,10.0,12.0,94,0.00,,,-99.99,,2013-03-15 14:52:00,
2013-03-15 10:02:00,35.0,33.0,-100.00,SE,125,10.0,12.0,94,0.00,,,-99.99,,2013-03-15 15:02:00,
2013-03-15 10:12:00,35.0,34.0,-100.00,SE,135,9.0,14.0,94,0.00,,,-99.99,,2013-03-15 15:12:00,
2013-03-15 10:22:00,36.0,35.0,-100.00,East,90,4.0,9.0,94,0.00,,,-99.99,,2013-03-15 15:22:00,
2013-03-15 10:33:00,38.0,37.0,-100.00,NNE,25,3.0,4.0,93,0.00,,,-99.99,,2013-03-15 15:33:00,
2013-03-15 10:42:00,38.0,37.0,-100.00,NNE,25,3.0,4.0,93,0.00,,,-99.99,,2013-03-15 15:42:00,
2013-03-15 10:52:00,37.0,35.0,-100.00,North,5,6.0,9.0,90,0.00,,,-99.99,,2013-03-15 15:52:00,
2013-03-15 11:02:00,37.0,35.0,-100.00,North,5,6.0,9.0,90,0.00,,,-99.99,,2013-03-15 16:02:00,
2013-03-15 11:12:00,37.0,35.0,-100.00,NE,40,7.0,11.0,90,0.00,,,-99.99,,2013-03-15 16:12:00,
2013-03-15 11:22:00,37.0,34.0,-100.00,NE,50,9.0,11.0,90,0.00,,,-99.99,,2013-03-15 16:22:00,
2013-03-15 11:32:00,37.0,35.0,-100.00,NE,35,9.0,11.0,90,0.00,,,-99.99,,2013-03-15 16:32:00,
2013-03-15 11:42:00,37.0,35.0,-100.00,NE,35,9.0,11.0,90,0.00,,,-99.99,,2013-03-15 16:42:00,
2013-03-15 11:52:00,37.0,35.0,-100.00,NE,35,8.0,13.0,90,0.00,,,-99.99,,2013-03-15 16:52:00,
2013-03-15 12:02:00,37.0,35.0,-100.00,NE,35,8.0,13.0,90,0.00,,,-99.99,,2013-03-15 17:02:00,
2013-03-15 12:12:00,38.0,35.0,-100.00,NE,35,9.0,14.0,90,0.00,,,-99.99,,2013-03-15 17:12:00,
2013-03-15 12:22:00,37.0,35.0,-100.00,NE,55,11.0,14.0,90,0.00,,,-99.99,,2013-03-15 17:22:00,
2013-03-15 12:32:00,36.0,34.0,-100.00,NE,55,11.0,14.0,90,0.00,,,-99.99,,2013-03-15 17:32:00,
2013-03-15 12:42:00,36.0,34.0,-100.00,NE,55,11.0,14.0,90,0.00,,,-99.99,,2013-03-15 17:42:00,
2013-03-15 12:52:00,37.0,34.0,-100.00,NE,55,10.0,14.0,90,0.00,,,-99.99,,2013-03-15 17:52:00,
2013-03-15 13:02:00,37.0,34.0,-100.00,NE,55,10.0,14.0,90,0.00,,,-99.99,,2013-03-15 18:02:00,
2013-03-15 13:12:00,37.0,35.0,-100.00,ENE,70,9.0,13.0,90,0.00,,,-99.99,,2013-03-15 18:12:00,
2013-03-15 13:22:00,37.0,35.0,-100.00,ENE,65,10.0,12.0,90,0.00,,,-99.99,,2013-03-15 18:22:00,
2013-03-15 13:32:00,37.0,35.0,-100.00,NE,55,10.0,12.0,90,0.00,,,-99.99,,2013-03-15 18:32:00,
2013-03-15 13:42:00,37.0,35.0,-100.00,NE,55,10.0,12.0,90,0.00,,,-99.99,,2013-03-15 18:42:00,
2013-03-15 13:52:00,38.0,35.0,-100.00,NE,55,9.0,12.0,90,0.00,,,-99.99,,2013-03-15 18:52:00,
2013-03-15 14:02:00,38.0,35.0,-100.00,NE,55,9.0,12.0,90,0.00,,,-99.99,,2013-03-15 19:02:00,
2013-03-15 14:12:00,38.0,35.0,-100.00,NE,55,7.0,12.0,90,0.00,,,-99.99,,2013-03-15 19:12:00,
2013-03-15 14:22:00,39.0,36.0,-100.00,NE,40,6.0,8.0,89,0.00,,,-99.99,,2013-03-15 19:22:00,
2013-03-15 14:32:00,39.0,36.0,-100.00,NE,40,9.0,12.0,89,0.00,,,-99.99,,2013-03-15 19:32:00,
2013-03-15 14:42:00,39.0,36.0,-100.00,NE,40,9.0,12.0,89,0.00,,,-99.99,,2013-03-15 19:42:00,
2013-03-15 14:52:00,39.0,36.0,-100.00,NE,55,9.0,11.0,88,0.00,,,-99.99,,2013-03-15 19:52:00,
2013-03-15 15:02:00,39.0,36.0,-100.00,NE,55,9.0,11.0,88,0.00,,,-99.99,,2013-03-15 20:02:00,
2013-03-15 15:12:00,39.0,36.0,-100.00,NE,40,9.0,12.0,88,0.00,,,-99.99,,2013-03-15 20:12:00,
2013-03-15 15:22:00,40.0,36.0,-100.00,NE,40,8.0,11.0,87,0.00,,,-99.99,,2013-03-15 20:22:00,
2013-03-15 15:42:00,40.0,37.0,-100.00,NE,40,11.0,13.0,87,0.00,,,-99.99,,2013-03-15 20:42:00,
2013-03-15 15:52:00,39.0,36.0,-100.00,North,10,6.0,13.0,87,0.00,,,-99.99,,2013-03-15 20:52:00,
2013-03-15 16:02:00,39.0,36.0,-100.00,North,10,6.0,13.0,87,0.00,,,-99.99,,2013-03-15 21:02:00,
2013-03-15 16:12:00,39.0,35.0,-100.00,NE,35,8.0,12.0,87,0.00,,,-99.99,,2013-03-15 21:12:00,
2013-03-15 16:22:00,39.0,35.0,-100.00,NE,40,7.0,11.0,87,0.00,,,-99.99,,2013-03-15 21:22:00,
2013-03-15 16:33:00,38.0,35.0,-100.00,NE,55,10.0,12.0,89,0.00,,,-99.99,,2013-03-15 21:33:00,
2013-03-15 16:43:00,38.0,35.0,-100.00,NE,55,10.0,12.0,89,0.00,,,-99.99,,2013-03-15 21:43:00,
2013-03-15 16:52:00,37.0,35.0,-100.00,NE,50,10.0,13.0,90,0.00,,,-99.99,,2013-03-15 21:52:00,
2013-03-15 17:03:00,37.0,35.0,-100.00,NE,50,10.0,13.0,90,0.00,,,-99.99,,2013-03-15 22:03:00,
2013-03-15 17:13:00,37.0,35.0,-100.00,NE,55,9.0,13.0,91,0.00,,,-99.99,,2013-03-15 22:13:00,
2013-03-15 17:22:00,36.0,34.0,-100.00,NE,50,9.0,12.0,91,0.00,,,-99.99,,2013-03-15 22:22:00,
2013-03-15 17:32:00,36.0,35.0,-100.00,NE,55,7.0,12.0,93,0.00,,,-99.99,,2013-03-15 22:32:00,
2013-03-15 17:42:00,36.0,35.0,-100.00,NE,55,7.0,12.0,93,0.00,,,-99.99,,2013-03-15 22:42:00,
2013-03-15 17:52:00,36.0,34.0,-100.00,NE,55,9.0,14.0,94,0.00,,,-99.99,,2013-03-15 22:52:00,
2013-03-15 18:02:00,36.0,34.0,-100.00,NE,55,9.0,14.0,94,0.00,,,-99.99,,2013-03-15 23:02:00,
2013-03-15 18:12:00,35.0,34.0,-100.00,NE,55,8.0,11.0,94,0.00,,,-99.99,,2013-03-15 23:12:00,
2013-03-15 18:22:00,35.0,34.0,-100.00,ENE,65,7.0,12.0,95,0.00,,,-99.99,,2013-03-15 23:22:00,
2013-03-15 18:32:00,35.0,34.0,-100.00,NE,50,9.0,12.0,96,0.00,,,-99.99,,2013-03-15 23:32:00,
2013-03-15 18:42:00,35.0,34.0,-100.00,NE,50,9.0,12.0,96,0.00,,,-99.99,,2013-03-15 23:42:00,
2013-03-15 18:52:00,35.0,33.0,-100.00,NE,55,7.0,9.0,96,0.00,,,-99.99,,2013-03-15 23:52:00,
2013-03-15 19:02:00,35.0,33.0,-100.00,NE,55,7.0,9.0,96,0.00,,,-99.99,,2013-03-16 00:02:00,
2013-03-15 19:12:00,34.0,33.0,-100.00,NE,45,4.0,9.0,96,0.00,,,-99.99,,2013-03-16 00:12:00,
2013-03-15 19:22:00,34.0,33.0,-100.00,NNE,30,2.0,4.0,96,0.00,,,-99.99,,2013-03-16 00:22:00,
2013-03-15 19:32:00,34.0,33.0,-100.00,North,0,6.0,7.0,96,0.00,,,-99.99,,2013-03-16 00:32:00,
2013-03-15 19:42:00,34.0,33.0,-100.00,North,0,6.0,7.0,96,0.00,,,-99.99,,2013-03-16 00:42:00,
2013-03-15 19:52:00,34.0,33.0,-100.00,NNE,15,4.0,8.0,96,0.00,,,-99.99,,2013-03-16 00:52:00,
2013-03-15 20:02:00,34.0,33.0,-100.00,NNE,15,4.0,8.0,96,0.00,,,-99.99,,2013-03-16 01:02:00,
2013-03-15 20:12:00,34.0,33.0,-100.00,North,0,6.0,7.0,96,0.00,,,-99.99,,2013-03-16 01:12:00,
2013-03-15 20:21:00,34.0,33.0,-100.00,NNW,340,8.0,9.0,96,0.00,,,-99.99,,2013-03-16 01:21:00,
2013-03-15 20:32:00,34.0,33.0,-100.00,NNW,335,11.0,12.0,96,0.00,,,-99.99,,2013-03-16 01:32:00,
2013-03-15 20:42:00,34.0,33.0,-100.00,NNW,335,9.0,11.0,96,0.00,,,-99.99,,2013-03-16 01:42:00,
2013-03-15 20:52:00,34.0,33.0,-100.00,NNW,345,10.0,11.0,96,0.27,,,-99.99,,2013-03-16 01:52:00,
2013-03-15 21:02:00,34.0,33.0,-100.00,NNW,345,9.0,12.0,96,0.00,,,-99.99,,2013-03-16 02:02:00,
2013-03-15 21:12:00,34.0,33.0,-100.00,NNW,345,7.0,10.0,96,0.00,,,-99.99,,2013-03-16 02:12:00,
2013-03-15 21:22:00,33.0,32.0,-100.00,NNW,335,6.0,9.0,96,0.00,,,-99.99,,2013-03-16 02:22:00,
2013-03-15 21:32:00,33.0,32.0,-100.00,NNW,335,6.0,9.0,96,0.00,,,-99.99,,2013-03-16 02:32:00,
2013-03-15 21:42:00,33.0,32.0,-100.00,NNW,330,4.0,7.0,96,0.00,,,-99.99,,2013-03-16 02:42:00,
2013-03-15 21:52:00,33.0,32.0,-100.00,NW,325,4.0,6.0,96,0.00,,,-99.99,,2013-03-16 02:52:00,
2013-03-15 22:02:00,33.0,32.0,-100.00,NW,325,4.0,6.0,96,0.00,,,-99.99,,2013-03-16 03:02:00,
2013-03-15 22:12:00,34.0,33.0,-100.00,NNW,335,11.0,12.0,96,0.00,,,-99.99,,2013-03-16 03:12:00,
2013-03-15 22:22:00,34.0,33.0,-100.00,NNW,335,12.0,14.0,96,0.00,,,-99.99,,2013-03-16 03:22:00,
2013-03-15 22:32:00,34.0,33.0,-100.00,NNW,345,9.0,12.0,96,0.27,,,-99.99,,2013-03-16 03:32:00,
2013-03-15 22:43:00,34.0,33.0,-100.00,North,0,5.0,9.0,96,0.00,,,-99.99,,2013-03-16 03:43:00,
2013-03-15 22:52:00,34.0,33.0,-100.00,North,355,8.0,9.0,96,0.00,,,-99.99,,2013-03-16 03:52:00,
2013-03-15 23:02:00,34.0,33.0,-100.00,North,355,8.0,9.0,96,0.00,,,-99.99,,2013-03-16 04:02:00,
2013-03-15 23:12:00,34.0,33.0,-100.00,North,355,7.0,8.0,96,0.00,,,-99.99,,2013-03-16 04:12:00,
2013-03-15 23:22:00,33.0,32.0,-100.00,NNW,340,7.0,9.0,96,0.00,,,-99.99,,2013-03-16 04:22:00,
2013-03-15 23:32:00,33.0,32.0,-100.00,NNW,330,9.0,9.0,96,0.00,,,-99.99,,2013-03-16 04:32:00,
2013-03-15 23:43:00,34.0,33.0,-100.00,NNW,335,9.0,11.0,96,0.00,,,-99.99,,2013-03-16 04:43:00,
2013-03-15 23:52:00,34.0,33.0,-100.00,NNW,345,13.0,16.0,96,0.30,,,-99.99,,2013-03-16 04:52:00,